Regional Weather Roundup
Issued by NWS

Home | Current Version | Previous Version | Text Only | Print | Product List | Glossary Off
Versions: 1 2 3 4 5 6 7 8 9 10 11 12 13 14 15 16 17 18 19 20 21 22 23 24 25 26 27 28 29 30 31 32 33 34 35 36 37 38 39 40 41 42 43 44 45 46 47 48 49 50

000
ASUS43 KOAX 260510
RWRNE

WEATHER ROUNDUP FOR NEBRASKA
NATIONAL WEATHER SERVICE OMAHA NE
1200 AM CDT SAT JUL 26 2014

NOTES: SATELLITE DATA IS BEING USED TO AUGMENT CLOUD COVER ABOVE
       12000 FEET.
       "FAIR" INDICATES FEW OR NO CLOUDS BELOW 12,000 FEET WITH NO
       SIGNIFICANT WEATHER AND/OR OBSTRUCTIONS TO VISIBILITY.

  * THESE STATIONS DO NOT REPORT WEATHER SUCH AS RAIN...SNOW OR FOG.

NEZ001>004-019>022-054>056-260600-
NEBRASKA PANHANDLE

CITY           SKY/WX    TMP DP  RH WIND       PRES   REMARKS
SCOTTSBLUFF    MOCLDY    69  61  75 E9        29.93F
ALLIANCE       MOCLDY    69  60  73 S13       29.92F
CHADRON        CLEAR     80  54  40 S20       29.82R
KIMBALL        MOCLDY    69  56  63 SW12      30.01F
SIDNEY         MOCLDY    72  56  57 S9        30.01F
$$

NEZ057>060-069>072-079>082-260600-
SOUTHWEST NEBRASKA

CITY           SKY/WX    TMP DP  RH WIND       PRES   REMARKS
NORTH PLATTE   CLOUDY    76  68  76 SE5       29.90F
IMPERIAL       CLOUDY    74  66  76 N6        29.95S
LEXINGTON      CLOUDY    74  71  89 N9        29.90R
MCCOOK         MOCLDY    74  69  85 N10       29.89S
OGALLALA       CLOUDY    76  62  60 E9        29.90F
$$

NEZ005>010-023>029-035>040-094-260600-
NORTH CENTRAL NEBRASKA

CITY           SKY/WX    TMP DP  RH WIND       PRES   REMARKS
VALENTINE      PTCLDY    74  61  63 NE9       29.86F
AINSWORTH      MOCLDY    73  69  87 E8        29.88S
BROKEN BOW     CLOUDY    78  70  76 S7        29.88F
O`NEILL        MOCLDY    75  67  77 NE9       29.87F
ORD            CLOUDY    75  71  87 CALM      29.85F
THEDFORD       CLOUDY    77  67  71 SE5       29.87F
$$

NEZ041-046>049-061>064-073>077-083>087-260600-
SOUTH CENTRAL NEBRASKA

CITY           SKY/WX    TMP DP  RH WIND       PRES   REMARKS
GRAND ISLAND   PTCLDY    76  72  87 CALM      29.85R
AURORA         PTCLDY    74  74 100 CALM      29.84R FOG
HASTINGS       PTCLDY    74  68  81 CALM      29.84S
HEBRON         PTCLDY    76  71  85 CALM      29.81S
HOLDREGE       MOCLDY    72  68  87 N6        29.86S
KEARNEY *      PTCLDY    72  66  83 N3        29.86S
YORK           FOG       73  73 100 CALM      29.83S VSB 1/2
$$

NEZ011>018-030>034-042>045-260600-
NORTHEAST NEBRASKA

CITY           SKY/WX    TMP DP  RH WIND       PRES   REMARKS
NORFOLK        MOCLDY    77  73  87 CALM      29.84R
ALBION         CLOUDY    76  74  92 CALM      29.86R FOG
BLAIR          PTCLDY    76  73  88 NE6       29.80S
COLUMBUS *     MOCLDY    64 N/A N/A NE5       29.82R
FREMONT        MOCLDY    81  77  88 NE3       29.81S
WAYNE          PTCLDY    72  71  96 CALM      29.85R FOG
$$

NEZ050>053-065>068-078-088>093-260600-
SOUTHEAST NEBRASKA

CITY           SKY/WX    TMP DP  RH WIND       PRES   REMARKS
LINCOLN        CLEAR     78  73  84 N5        29.80R
OMAHA EPPLEY   MOCLDY    79  72  79 NE3       29.79R
BEATRICE       CLEAR     76  73  90 CALM      29.80S
FALLS CITY     CLEAR     85  71  63 SW7       29.77R HX  90
NEBRASKA CITY  CLEAR     80  75  85 NW3       29.79R
PLATTSMOUTH    CLEAR     77  74  91 NE5       29.79R
$$

NEZ044-045-051>053-067-260600-
OMAHA AREA

CITY           SKY/WX    TMP DP  RH WIND       PRES   REMARKS
OMAHA EPPLEY   MOCLDY    79  72  79 NE3       29.79R
BLAIR          PTCLDY    76  73  88 NE6       29.80S
FREMONT        MOCLDY    81  77  88 NE3       29.81S
MILLARD        CLEAR     81  76  85 CALM      29.79R
OFFUTT AFB     PTCLDY    76  76 100 NE6       29.78R
PLATTSMOUTH    CLEAR     77  74  91 NE5       29.79R
WAHOO          FAIR      77  74  90 N5        29.80S FOG
$$



USA.gov is the U.S. government's official web portal to all federal, state and local government web resources and services.